Location: Innsbruck
(47.2657°N, 11.3914°E)
Time: 19:35:17
(UTC+02:00)

N. Korean satellite - Pass Details

Date: 23 September 2021
Orbit: 450 x 495 km, 97.3° (Epoch: 15 October)

Event Time Altitude Azimuth Distance (km) Brightness Sun altitude
Rises 06:26:02 0° 15° (NNE) 2,516 10.5 -7.0°
Reaches altitude 10° 06:28:06 10° 19° (NNE) 1,642 9.6 -6.7°
Maximum altitude 06:31:35 63° 101° (E) 538 7.1 -6.1°
Drops below altitude 10° 06:35:07 10° 183° (S) 1,654 9.2 -5.5°
Sets 06:37:12 0° 187° (S) 2,536 10.1 -5.1°
